Location: Il Ritiro
(43.4167°N, 13.1333°E)
Time: 07:51:57
(UTC+00:00)

Cosmos 1340 - Pass Details

Date: 05 July 2020
Orbit: 502 x 504 km, 81.2° (Epoch: 05 August)

Event Time Altitude Azimuth Distance (km) Brightness Sun altitude
Exits shadow 23:34:22 29° 291° (WNW) 938 4.1 -23.7°
Drops below altitude 10° 23:37:34 10° 349° (N) 1,720 6.3 -23.7°
Sets 23:39:54 0° 0° (N) 2,610 7.7 -23.6°
